Wind_Speed
7 8 8 8 9 9 9 9 9 9 9 9 9 9 8 9 9 9 9 9 7 5 2 3 5 5 6 2 2 5 3 1 5 8 5 6 4 3 2 7 2 7 10 18 20
9 9 9 9 9 10 10 9 9 9 8 8 8 8 7 7 8 12 14 14 9 7 2 5 5 4 8 3 1 10 6 8 4 4 5 4 6 5 9 21 7 12 7 14 21
10 10 10 10 10 10 10 10 9 9 8 8 7 7 6 5 7 9 17 14 11 7 5 6 6 7 8 2 3 2 6 5 5 10 6 4 6 7 8 1 3 15 13 17 20
12 11 11 11 11 11 10 10 9 8 7 7 7 5 4 4 1 3 10 15 12 9 6 7 7 10 9 2 3 3 3 5 6 5 5 4 7 9 5 8 7 8 12 17 18
14 14 13 13 12 12 11 10 9 8 7 6 5 4 3 6 3 2 7 14 14 9 8 8 8 5 11 3 6 3 6 7 7 10 1 6 7 4 7 2 3 9 14 15 14
16 16 15 14 14 13 11 9 8 7 6 5 4 3 2 12 1 2 5 13 14 12 10 8 7 4 9 8 8 7 8 10 4 5 3 8 7 3 3 5 7 11 13 13 12
19 18 17 15 14 12 10 8 6 5 5 4 4 3 8 6 4 2 5 11 13 12 10 9 7 10 8 11 3 11 12 8 1 5 4 15 12 5 5 6 10 13 13 12 11
22 20 19 17 15 12 9 7 4 4 4 3 2 2 7 5 5 4 7 11 12 11 9 6 8 11 11 12 13 14 13 12 8 5 3 11 1 8 5 8 12 14 15 14 13
23 22 21 18 15 13 8 5 2 2 1 2 2 3 5 3 7 8 8 10 11 10 9 7 9 15 16 11 13 13 12 3 3 3 7 7 11 5 6 11 13 14 17 16 16
23 23 22 18 15 12 7 3 1 1 2 3 4 6 6 7 11 10 9 8 12 11 11 12 14 14 13 12 12 12 3 4 9 1 7 12 11 10 10 11 12 15 17 18 19
24 23 22 19 15 11 5 1 2 3 11 7 5 2 6 7 10 11 11 9 10 13 14 17 14 15 16 15 12 8 11 13 11 5 8 12 14 13 10 15 14 14 18 20 20
24 24 22 19 14 9 2 4 5 3 5 10 7 6 5 8 10 12 13 12 10 13 16 14 14 17 17 9 10 12 13 13 12 3 11 15 16 17 16 14 18 18 18 19 21
24 23 21 18 12 3 4 5 3 5 8 10 10 12 10 11 12 16 16 16 10 13 13 15 11 4 12 10 13 14 14 13 13 12 16 21 16 13 11 13 14 18 18 21 23
24 23 20 15 4 1 1 3 3 3 6 12 11 9 11 11 10 8 17 13 10 11 12 12 16 8 10 11 13 17 11 7 10 12 12 16 13 14 2 5 11 15 19 21 23
24 22 19 10 5 3 3 1 3 2 6 11 10 6 9 14 10 14 13 15 14 11 7 12 8 11 13 15 13 12 10 8 11 13 15 17 10 8 6 8 9 12 17 21 24
22 20 16 7 8 8 4 4 1 7 2 8 8 11 13 18 8 7 14 14 9 14 13 16 13 8 11 7 13 13 10 13 17 14 13 17 7 9 10 5 5 4 10 17 23
20 17 9 5 2 6 4 4 7 9 3 9 10 13 15 12 11 11 14 15 12 11 17 17 18 17 12 14 8 12 13 11 11 10 11 10 5 8 3 6 6 5 9 14 22
17 11 4 7 5 7 5 9 9 6 1 4 3 10 13 14 11 12 12 13 15 15 12 11 9 8 15 13 13 14 15 12 8 9 6 8 4 1 1 1 9 5 9 15 22
11 2 2 4 10 7 10 10 3 2 5 5 8 11 13 9 7 12 11 12 10 11 11 6 4 8 3 8 13 15 10 14 18 16 13 11 4 10 8 9 6 1 6 16 20
3 5 3 6 8 6 9 14 3 5 7 8 13 7 12 15 10 9 11 4 8 5 8 7 9 8 10 5 9 14 14 8 10 11 11 11 4 6 6 6 6 2 10 15 20
6 7 4 6 6 10 10 3 2 4 5 5 4 6 10 2 9 10 7 10 1 1 8 12 12 8 6 11 10 8 11 12 15 11 11 8 7 8 4 2 5 6 4 16 21
6 3 9 9 11 11 8 1 3 4 4 4 6 8 9 5 8 10 4 6 3 7 9 6 12 12 15 12 5 12 15 13 11 15 13 10 13 8 5 3 1 1 4 4 18
6 4 7 9 6 7 6 5 3 5 1 2 4 3 2 8 4 6 6 9 6 10 9 9 8 11 16 17 14 3 13 13 16 17 15 13 12 4 7 5 9 4 6 4 9
5 5 6 11 9 12 3 3 6 1 1 3 7 6 8 11 8 6 6 5 4 6 7 6 14 18 15 20 7 12 16 14 15 12 14 16 19 17 11 7 8 6 10 3 4
3 3 6 4 7 4 4 4 3 3 1 3 4 6 6 7 10 10 3 7 7 9 9 7 16 17 21 23 23 21 19 19 20 19 19 22 23 17 10 15 15 10 10 2 4
8 6 2 2 1 6 5 3 4 5 5 3 7 4 5 7 6 10 9 8 10 13 7 12 16 18 20 22 23 22 24 24 23 21 21 23 24 20 26 6 11 7 8 6 4
6 3 5 4 3 7 3 4 3 3 3 4 6 8 7 11 9 14 16 17 16 14 15 15 15 15 21 20 22 21 20 21 22 21 19 21 16 12 7 3 6 4 7 9 9
Wind_Direction
338 328 322 319 317 314 310 306 301 298 296 295 294 295 295 283 268 262 246 238 219 239 221 269 276 272 266 284 319 267 103 34 58 63 46 123 293 108 272 149 122 68 32 143 154
349 337 328 323 317 312 307 304 302 300 296 293 292 296 302 295 275 257 235 229 226 207 207 261 273 285 261 215 81 315 46 30 360 38 19 70 320 279 119 280 77 128 106 141 159
355 346 336 327 319 311 306 304 302 300 297 291 290 297 306 309 285 211 219 223 211 206 230 265 273 276 268 255 63 74 32 3 343 8 27 356 244 260 304 96 124 138 136 158 168
0 352 343 333 324 315 308 303 301 298 294 290 288 295 298 292 322 229 208 205 199 195 239 251 259 256 272 325 71 280 4 353 338 309 300 317 9 300 336 20 22 89 146 163 176
1 354 346 338 328 320 312 304 299 294 291 286 283 289 283 240 251 303 213 199 197 199 222 239 264 279 273 318 288 235 348 316 325 279 322 303 257 286 285 282 101 125 150 164 181
1 354 348 340 331 323 314 305 296 292 288 283 272 263 264 251 260 255 194 203 195 203 221 237 270 309 287 274 279 5 304 285 317 341 287 329 300 218 90 122 148 158 161 171 183
360 354 350 345 337 330 321 309 292 283 281 269 254 248 260 290 182 164 170 192 190 203 231 238 260 272 331 262 18 284 274 257 123 349 344 316 241 186 78 155 166 179 181 172 176
357 353 350 347 342 337 327 316 294 285 286 257 222 213 280 205 192 183 175 181 193 206 230 244 252 270 276 292 272 250 261 250 120 318 61 302 339 98 170 184 172 190 184 181 177
353 351 349 346 341 339 330 321 289 299 248 163 96 200 210 221 191 182 167 185 193 209 225 242 258 260 270 246 254 218 272 323 139 151 308 303 305 178 186 194 200 187 183 188 181
348 347 346 344 340 336 328 327 288 248 158 151 208 231 223 216 173 176 184 182 189 210 223 236 241 248 231 249 260 345 306 309 294 16 295 301 297 304 190 214 229 182 191 192 187
342 343 343 341 335 329 313 331 277 206 218 265 160 317 146 160 166 185 184 192 212 219 225 210 235 237 239 248 265 341 294 281 278 296 301 292 291 289 267 186 217 213 192 188 199
336 338 340 338 332 319 233 213 334 339 274 220 213 221 188 181 183 193 189 209 203 221 219 234 231 251 254 283 299 262 275 270 267 301 280 294 290 283 261 236 207 206 206 197 194
332 333 336 335 332 321 197 230 280 310 253 164 208 210 192 197 204 192 198 213 224 227 217 251 286 11 265 244 244 254 264 284 299 314 281 262 273 294 203 203 222 214 208 195 195
328 328 332 333 27 195 291 221 259 298 259 145 192 196 189 206 224 205 200 212 229 259 237 250 260 222 259 248 254 260 262 294 289 268 285 321 296 270 205 213 198 223 204 201 198
324 325 326 310 236 239 209 289 272 219 256 150 136 152 197 206 112 189 199 215 257 227 249 248 217 248 239 256 259 268 308 267 267 271 277 270 256 260 159 166 170 198 213 201 197
321 321 321 300 234 200 228 281 227 230 212 145 143 185 181 211 208 141 193 220 261 262 253 258 274 251 261 265 249 254 266 251 251 252 263 253 253 261 149 120 181 169 182 204 198
319 316 302 229 141 207 226 209 231 256 129 148 183 166 196 181 192 182 196 203 229 219 227 230 231 231 230 252 223 227 235 254 225 221 243 88 276 264 124 179 243 263 213 198 190
319 311 285 216 225 186 202 233 257 19 129 69 225 181 209 177 213 200 198 221 219 268 288 284 201 191 186 234 251 206 250 268 298 275 7 119 256 235 213 218 267 269 224 183 185
321 302 260 261 177 192 228 233 292 52 21 276 167 227 203 210 256 198 226 230 225 204 262 333 211 117 232 246 225 247 240 261 282 286 269 260 178 259 210 222 30 47 176 174 181
297 219 189 190 184 193 243 264 41 341 300 237 258 203 228 196 196 202 203 174 257 239 246 279 279 203 133 216 223 253 267 267 223 262 273 274 184 220 136 17 344 264 180 178 179
168 217 181 168 176 222 243 107 143 157 309 287 302 281 269 134 213 209 266 112 340 183 280 273 263 259 179 217 242 184 235 243 278 300 310 296 61 28 124 159 325 122 247 173 182
263 224 167 169 216 227 255 145 19 258 210 260 277 292 296 354 264 247 245 66 65 306 274 255 285 279 266 276 225 289 295 255 229 233 239 268 294 209 151 157 262 109 159 246 185
264 84 183 196 253 201 79 168 279 260 123 283 268 263 28 290 289 282 338 69 12 287 7 342 255 266 253 243 233 304 275 255 270 288 282 292 286 18 98 192 260 128 108 190 225
270 190 166 218 274 303 158 153 160 181 156 292 315 261 273 254 223 274 252 114 306 317 4 297 274 277 282 298 305 257 288 286 294 288 284 266 277 288 283 264 250 216 122 98 190
256 34 350 196 202 286 293 25 255 178 244 273 195 321 330 298 278 268 278 328 265 145 264 257 273 283 286 291 292 295 287 282 273 277 276 289 295 289 299 303 347 6 60 38 69
327 327 227 359 215 246 143 179 272 105 304 134 300 2 306 297 349 339 346 287 308 304 309 308 298 293 278 280 283 278 278 278 277 273 273 280 276 283 288 138 286 346 40 62 38
1 334 296 105 233 243 79 66 53 297 131 14 327 306 285 28 326 299 288 281 274 280 282 284 287 288 278 285 294 280 276 282 283 273 277 273 290 323 319 67 35 10 69 66 70
Height
1542 1541 1539 1538 1536 1535 1533 1532 1531 1530 1528 1527 1526 1525 1525 1524 1524 1524 1526 1527 1527 1526 1526 1528 1527 1525 1522 1517 1516 1512 1526 1513 1507 1509 1506 1505 1505 1505 1504 1499 1505 1510 1512 1519 1529
1542 1540 1538 1536 1535 1533 1532 1531 1530 1528 1527 1526 1525 1525 1524 1523 1522 1523 1524 1523 1525 1526 1526 1528 1524 1523 1516 1514 1514 1509 1505 1510 1507 1505 1507 1507 1507 1503 1506 1508 1508 1509 1517 1523 1529
1542 1540 1537 1535 1534 1532 1531 1529 1528 1527 1526 1525 1524 1524 1524 1523 1522 1520 1519 1522 1524 1525 1527 1527 1526 1522 1515 1512 1512 1512 1514 1510 1507 1508 1507 1506 1504 1503 1501 1516 1506 1508 1515 1524 1529
1541 1539 1537 1534 1532 1530 1529 1528 1527 1526 1525 1524 1524 1524 1523 1523 1515 1518 1518 1520 1523 1525 1528 1527 1524 1519 1513 1508 1512 1510 1512 1512 1511 1510 1506 1504 1506 1501 1500 1503 1506 1507 1516 1523 1528
1541 1539 1536 1533 1531 1529 1527 1526 1525 1525 1524 1524 1523 1523 1523 1524 1519 1518 1518 1519 1523 1525 1527 1526 1523 1519 1513 1512 1512 1510 1511 1511 1509 1505 1504 1504 1503 1502 1501 1503 1508 1512 1518 1523 1526
1541 1538 1535 1532 1530 1527 1526 1525 1524 1524 1523 1523 1523 1523 1524 1521 1518 1519 1519 1519 1523 1525 1526 1526 1523 1522 1519 1515 1512 1512 1512 1509 1507 1505 1503 1503 1501 1499 1499 1503 1509 1515 1519 1521 1524
1540 1537 1534 1531 1528 1526 1524 1523 1523 1522 1522 1522 1522 1522 1523 1520 1518 1519 1520 1521 1523 1525 1525 1525 1525 1524 1516 1512 1512 1512 1509 1503 1506 1505 1503 1503 1497 1496 1500 1504 1508 1513 1516 1519 1523
1540 1536 1533 1530 1527 1525 1523 1522 1521 1521 1521 1521 1522 1522 1520 1517 1518 1519 1520 1522 1523 1525 1525 1524 1525 1523 1520 1515 1511 1507 1502 1504 1501 1505 1504 1501 1502 1495 1499 1502 1504 1508 1513 1517 1521
1539 1535 1532 1529 1525 1523 1521 1520 1520 1520 1520 1521 1522 1523 1515 1516 1518 1519 1520 1521 1523 1525 1525 1525 1525 1521 1515 1513 1506 1496 1505 1498 1500 1501 1502 1500 1501 1491 1496 1499 1497 1503 1508 1514 1518
1538 1534 1530 1527 1524 1522 1520 1519 1519 1520 1520 1520 1521 1526 1516 1514 1516 1518 1520 1521 1522 1523 1525 1525 1522 1516 1510 1508 1513 1501 1499 1500 1503 1496 1498 1499 1493 1487 1487 1493 1494 1496 1502 1509 1514
1536 1532 1529 1525 1523 1520 1519 1519 1522 1521 1520 1512 1512 1512 1513 1515 1517 1518 1519 1521 1521 1521 1518 1515 1516 1512 1501 1494 1494 1500 1507 1508 1498 1492 1501 1496 1493 1484 1480 1484 1490 1492 1496 1502 1509
1534 1530 1527 1523 1520 1518 1517 1520 1518 1519 1510 1511 1512 1513 1513 1513 1515 1516 1518 1518 1517 1514 1512 1509 1511 1501 1496 1495 1501 1503 1505 1503 1493 1493 1496 1493 1488 1479 1475 1474 1480 1486 1488 1495 1502
1532 1528 1525 1522 1519 1517 1517 1519 1517 1518 1512 1506 1508 1509 1511 1513 1508 1510 1515 1514 1510 1507 1502 1505 1493 1498 1498 1498 1505 1502 1502 1498 1500 1494 1492 1486 1485 1468 1465 1469 1474 1476 1482 1487 1494
1529 1525 1523 1520 1521 1519 1519 1517 1517 1517 1504 1499 1504 1505 1509 1509 1506 1506 1510 1511 1507 1504 1500 1499 1494 1497 1501 1502 1499 1502 1488 1493 1500 1504 1506 1478 1504 1469 1461 1464 1466 1471 1474 1481 1487
1526 1523 1520 1518 1518 1520 1519 1517 1517 1518 1507 1491 1498 1503 1502 1503 1500 1504 1508 1508 1505 1499 1503 1497 1495 1499 1501 1499 1493 1499 1490 1495 1496 1498 1494 1484 1484 1464 1458 1464 1464 1466 1468 1473 1480
1523 1519 1517 1515 1515 1516 1516 1517 1518 1513 1503 1490 1492 1496 1499 1500 1496 1503 1505 1507 1504 1501 1496 1495 1491 1494 1493 1490 1491 1491 1495 1495 1490 1490 1503 1474 1476 1464 1457 1459 1461 1461 1465 1468 1474
1519 1516 1514 1513 1517 1515 1516 1518 1509 1500 1478 1486 1485 1489 1490 1492 1492 1497 1501 1503 1501 1507 1496 1486 1487 1487 1493 1494 1490 1493 1496 1504 1502 1494 1489 1461 1479 1465 1450 1452 1456 1457 1459 1464 1469
1515 1513 1511 1510 1512 1513 1517 1512 1508 1478 1477 1479 1482 1481 1487 1482 1486 1489 1491 1495 1492 1490 1489 1486 1487 1478 1481 1490 1488 1491 1489 1494 1507 1487 1474 1461 1480 1459 1447 1451 1453 1454 1455 1460 1466
1512 1511 1512 1512 1510 1513 1515 1502 1484 1481 1481 1482 1480 1484 1483 1478 1484 1485 1487 1483 1479 1484 1495 1486 1484 1477 1482 1481 1485 1485 1489 1475 1483 1472 1479 1463 1453 1446 1444 1449 1450 1451 1454 1459 1464
1511 1513 1513 1512 1512 1515 1509 1497 1486 1490 1491 1486 1484 1476 1478 1477 1487 1482 1480 1477 1480 1480 1482 1482 1496 1470 1474 1480 1480 1480 1470 1487 1480 1508 1508 1470 1466 1462 1454 1451 1453 1453 1454 1458 1463
1510 1509 1511 1512 1514 1513 1496 1486 1491 1494 1495 1488 1481 1481 1475 1473 1477 1476 1476 1480 1486 1484 1485 1481 1483 1479 1476 1478 1473 1477 1482 1479 1472 1470 1484 1485 1473 1449 1454 1453 1455 1452 1455 1456 1462
1511 1501 1510 1512 1510 1497 1487 1491 1499 1492 1495 1491 1491 1485 1482 1477 1480 1479 1477 1478 1491 1489 1486 1480 1479 1483 1473 1458 1460 1464 1466 1462 1479 1484 1469 1469 1463 1438 1449 1450 1453 1455 1458 1459 1461
1508 1504 1510 1511 1496 1490 1494 1494 1497 1494 1494 1492 1488 1491 1489 1488 1495 1481 1481 1491 1494 1491 1491 1485 1486 1491 1479 1462 1456 1468 1466 1461 1459 1456 1469 1478 1465 1437 1445 1450 1451 1452 1460 1463 1463
1512 1500 1506 1507 1502 1492 1493 1493 1495 1502 1499 1499 1496 1495 1491 1489 1485 1490 1488 1490 1499 1496 1501 1500 1489 1489 1491 1473 1471 1488 1474 1466 1466 1474 1468 1464 1456 1442 1441 1446 1448 1450 1457 1462 1465
1512 1502 1505 1496 1498 1498 1500 1499 1498 1497 1501 1501 1499 1498 1497 1497 1488 1491 1487 1491 1493 1498 1500 1495 1495 1487 1480 1474 1469 1470 1474 1470 1472 1470 1477 1464 1458 1450 1452 1460 1457 1454 1458 1462 1465
1517 1512 1510 1506 1508 1505 1504 1502 1501 1501 1506 1498 1503 1503 1502 1503 1500 1506 1502 1504 1500 1494 1495 1494 1498 1492 1491 1483 1477 1478 1473 1469 1467 1465 1466 1463 1460 1449 1450 1453 1459 1457 1463 1467 1471
1522 1520 1517 1511 1505 1502 1500 1505 1508 1512 1512 1512 1513 1511 1504 1510 1513 1512 1510 1507 1504 1502 1501 1501 1498 1500 1497 1485 1480 1482 1469 1465 1461 1456 1457 1466 1456 1447 1452 1455 1463 1464 1469 1472 1474